Timeline UpdatesTrip UpdatesNews PostsPvt Posts♥♥Travel TipsAdmin PostsConv PostsFollowed PostsChat RequestsBlog PostsPNR Posts

Disclaimer
Search
 
 
Mon Nov 24, 2014 20:44:12 ISTHomeTrainsΣChainsAtlasPNRForumGalleryNewsFAQTripsMembersLoginFeedback
PNR Super Search

Ticket PNR Status Inquiry - PNR: 485-xxxxxxx (E-Ticket)

OLD STATUS

Status Last Updated on: Apr 22 2012 (8:03PM) IST

Date of Journey: Mon Apr 23, 2012   Class: Sleeper - SL   (Total Seats available for this Class/Quota: Avbl 173)
Passenger 1: Waitlist# 71 (Booking Status: W/L 110,CK)
Chart PREPARED

Tuticorin - Okha (Vivek) Express/19567

Travel Time: 32h 50m    24 halts    Distance: 1820 km    Avg Speed: 55 km/hr
Type: Mail/Express
Zone: WR/Western
Departs @ 07:20 (Avg 33m late)
Platform# ???
 M     
Salem Junction/SA 
Arrives @ 16:10 +1 night (Avg 12m late)
Platform# 3
  T    
Ahmedabad Junction/ADI 

24 halts. 274 intermediate Stations between Salem Junction and Ahmedabad Junction

Show ALL intermediate Stations  Show Old Time-Table

#TrkCodeStation NameX/OArrivesAvgDepartsAvgHaltPFDay#KmSpeedElevZoneAddress
1%--%TNTuticorin (3)  -22:55+011-427.1755mSRThoothukudi, Tamil Nadu
2%--%MEJVanchi Maniyachchi Junction (3)  23:24+723:25+141m--1-390.97570mSRThoothukudi, Tamil Nadu
3%--%CVPKovilpatti  23:54+1923:55+201m--1-354.76890mSRKovilpatti, Tamil Nadu
4%--%SRTSatur (2)X  00:14+2200:15+261m--2-333.34865mSRPh No:04562 - 260243, Tamil Nadu
5%--/VPTVirudunagar Junction (4)  00:48 00:49+2200:50+242 1m--2-306.043108mSRPh No: 04562-243747, Tamil Nadu
6/--/MDUMadurai Junction (6)X  01:55 01:50+1002:00+115 10m32-262.853139mSRMadurai 625001, Tamil Nadu
7/==/DGDindigul Junction (6)  03:10+403:15+85m--2-200.463287mSRDindigul ph.no.0451-2322045, Tamil Nadu
8|--|KRRKarur Junction (5)X  04:26+704:30+164m--2-126.341121mSRKarur Junction ph.no . 04324-274106, Tamil Nadu
9|--|EDErode Junction (4)X06:05+2306:15+4310m32-61.461175mSRErode ph.no: 0424-2256111, Tamil Nadu
10/==/SASalem Junction (6)»  07:15+3507:20+335m--20.066283mSRSalem, Tamil Nadu
11/==/BWTBangarapet Junction (6)X  10:15 10:18+3710:25 10:20+4010 2m32194.664815mSWRBangarapet, Karnataka
12/==/KJMKrishnarajapuram (4)  11:28 11:13+3911:30 11:15+452m32251.024909mSWRBengaluru-560016, Karnataka
13|--|YNKYelahanka Junction (4)  11:53+3411:55+372m12266.473911mSWRBengaluru-560064, Karnataka
14/--%HUPHindupur (4)  13:04+5013:05+501m--2349.956636mSWRHindupur, Andhra Pradesh
15%--%DMMDharmavaram Junction (5)  14:32 14:30+3914:35+463 5m32429.383371mSCRDharmavaram, Andhra Pradesh
16%--%ATPAnantapur (2)X  15:20 14:59+5815:22 15:00+1:012 1m12462.741349mSCRAnantapur, Andhra Pradesh
17|-=%GTLGuntakal Junction (6)  17:05+3117:20 17:15+3315 10m22548.369453mSCRGuntakal. Tel: 08552-227131/32, Andhra Pradesh
18%==%ADAdoni (4)18:00+4618:02+462m--2600.388420mSCRAdoni Tel: 08512-252368, Andhra Pradesh
19%==%MALMMantralayam Road (3)  18:30+5318:45+5015m12641.659335mSCRKurnool Tel: 08512-259830, Andhra Pradesh
20%==%RCRaichur Junction (3)  19:14+4719:15+481m22670.045406mSCRRaichur, Karnataka
21%==%WADIWadi Junction (4)XO  21:40+621:45+95m22777.653431mCRWadi, Karnataka
22%==!GRGulbarga (4)X  22:27+422:30+153m32814.471458mCRGulbarga 585101, Karnataka
23|==|SURSolapur (5)X  00:05+3300:15+3310m33927.056461mCRSolapur 413001, Maharashtra
24/==/PUNEPune Junction (6)  04:55+205:05+410m231189.560556mCRPune 411001, Maharashtra
25/==/LNLLonavala (3)  06:09+706:10+91m231253.247623mCRLonavala 410401, Maharashtra
26/==/KYNKalyan Junction (8)X  07:47+1507:50+143m731328.73910mCRKalyan 421301, Maharashtra
27/==/BSRVasai Road (7)X  09:00+609:05+115m--31373.9767mWRVasai 401202, Maharashtra
28/==/VAPIVapi (3)X  10:40+2010:42 10:43+192 3m131495.06627mWRVapi, Gujarat
29/==/BLValsad (3)XO  11:07+1611:09+162m231521.26815mWRValsad, Gujarat
30/==/STSurat (4)X  12:10+812:20+710m231589.97719mWRSurat 395001, Gujarat
31/==/BHBharuch Junction (5)X  13:05 13:06+1613:06 13:08+151 2m331649.26819mWRBharuch, Gujarat
32/==/BRCVadodara Junction (7)X  14:10+814:20+710m231719.77236mWRVadodara 390005, Gujarat
33/==/ANNDAnand Junction (6)O  14:55 14:50+914:56 14:52+91 2m231755.57444mWRAnand, Gujarat
34/==/NDNadiad Junction (4)X  15:12 15:07+015:13 15:09+01 2m--31774.04537mWRNadiad, Gujarat
35/==/ADIAhmedabad Junction (12)•X  16:10+1216:30+920m331819.56251mWRAhmedabad, Gujarat
36|==|VGViramgam Junction (5)  17:33+917:35+82m--31885.05429mWRViramgam, Gujarat
37|--|RJTRajkot Junction (5)XO  20:55+1621:00+165m332066.664128mWRRajkot, Gujarat
38|--|JAMJamnagar (2)X  22:17 22:19+4122:19 22:24+422 5m--32151.15314mWRJamnagar, Gujarat
39|--|KMBLKhambhalia23:23 23:25+1823:24 23:27+171 2m--32205.56249mWRKhambhalia, Gujarat
40|--|DWKDwarka (2)  00:47 00:48+500:48 00:53+31 5m--42289.54114mWRDwarka, Gujarat
41|--|OKHAOkha (3)  01:35+0---42318.1-5mWROkha, Gujarat
Scroll to Top
Scroll to Bottom